Weather Service Report


667 
ASUS44 KFWD 251415
RWRTX 
NORTH TEXAS HOURLY WEATHER ROUNDUP
NATIONAL WEATHER SERVICE FORT WORTH TX
900 AM CDT SUN SEP 25 2016

NOTE: "FAIR" INDICATES FEW OR NO CLOUDS BELOW 12,000 FEET WITH NO
SIGNIFICANT WEATHER AND/OR OBSTRUCTIONS TO VISIBILITY.

TXZ118-119-251500-
DALLAS/FORT WORTH METROPLEX
  
CITY           SKY/WX    TMP DP  RH WIND       PRES   REMARKS
DFW AIRPORT    LGT RAIN  74  70  87 N6        30.01R                  
DALLAS LOVE    LGT RAIN  78  74  87 S6        30.02R                  
FTW MEACHAM    RAIN      72  69  90 NW7       30.04R FOG              
DAL-EXECUTIVE  CLOUDY    77  75  93 SE7       30.01S                  
FTW-ALLIANCE   TSTM      70  69  97 N7        30.04R FOG              
FTW-NAS-JRB    LGT RAIN  72  69  90 N10       30.04R                  
FTW-SPINKS     LGT RAIN  72  70  94 NW10      30.05R                  
ARLINGTON      CLOUDY    76  73  91 SE7       30.02R                  
GRAND PRAIRIE  CLOUDY    75  75 100 SE6       30.03R                  
ADDISON        CLOUDY    73  73 100 N7        30.02S VSB 1            
MESQUITE       CLOUDY    75  75 100 SE5       30.02R                  
LANCASTER      CLOUDY    76  73  91 SE6       30.03R FOG              
$$

TXZ091>094-102>105-117-120-121-131>134-251500-
NORTH CENTRAL TEXAS
  
CITY           SKY/WX    TMP DP  RH WIND       PRES   REMARKS
SHRMAN/DENISON CLOUDY    72  72 100 E8        30.05S                  
GAINESVILLE    LGT RAIN  69  68  96 N3        30.07S                  
BOWIE          CLOUDY    69  68  96 N5        30.07F                  
BRIDGEPORT     RAIN      70  70 100 E5        30.07R                  
DECATUR        CLOUDY    69  69  99 CALM      30.06R                  
DENTON         RAIN      70  69  97 N8        30.04R FOG              
MCKINNEY       LGT RAIN  73  72  96 N3        30.03R                  
GREENVILLE     CLOUDY    77  72  83 CALM      30.04R                  
ROCKWALL       CLOUDY    75  75  99 SE6       30.02R                  
TERRELL        PTSUNNY   78  73  84 SE6       30.03R                  
WAXAHACHIE     CLOUDY    76  76  99 SE5       30.03S FOG              
CLEBURNE       RAIN      72  72 100 N10G18    30.05R VSB 3/4          
GRANBURY       RAIN      72  70  92 CALM      30.06R                  
$$

TXZ083>090-098>101-113>116-127>130-139>142-154-155-251500-
WESTERN NORTH TEXAS
  
CITY           SKY/WX    TMP DP  RH WIND       PRES   REMARKS
WICHITA FALLS  CLOUDY    69  68  96 CALM      30.06S                  
WF-KICKAPOO    DRIZZLE   71  68  90 NW5       30.08R                  
VERNON         CLOUDY    71  67  87 N3        30.09R                  
ABILENE        LGT RAIN  66  65  96 SE7       30.06F                  
ABILENE-DYESS  LGT RAIN  67  64  93 N5        30.05R                  
CISCO          PTSUNNY   68  66  94 CALM      30.07R                  
BRECKENRIDGE   PTSUNNY   70  69  98 W3        30.06R                  
GRAHAM         CLOUDY    69  69 100 CALM      30.04R                  
MINERAL WELLS  CLOUDY    71  68  90 NW5       30.03R                  
STEPHENVILLE   CLOUDY    69  67  91 CALM      30.09R                  
COMANCHE       LGT RAIN  67  67 100 CALM      30.05R                  
BROWNWOOD      LGT RAIN  66  66 100 NE7       30.05R                  
COLEMAN        RAIN      67  65  93 CALM      30.07R                  
$$

TXZ143>147-156>162-174-175-251500-
CENTRAL TEXAS
  
CITY           SKY/WX    TMP DP  RH WIND       PRES   REMARKS
WACO           CLOUDY    76  75  97 SE8       30.00R                  
WACO-MCGREGOR  CLOUDY    76  74  93 SE9       30.00R                  
HILLSBORO      CLOUDY    74  73  96 E7        30.01S FOG              
CORSICANA      CLOUDY    76  73  91 SE5       30.03R                  
MEXIA          CLOUDY    74  74  98 S8        30.00S                  
HEARNE         CLOUDY    76  75  96 E3        30.00S                  
CAMERON        CLOUDY    77  75  96 SE3       29.98F                  
TEMPLE         CLOUDY    75  75 100 SE9       30.00R                  
KILLEEN        TSTM      68  68 100 N13       30.02R VSB 5/8          
KILLEEN-SKYLRK HVY RAIN  69  69 100 NW17G23   30.00R FOG              
FORT HOOD      HVY RAIN  68  68 100 W18       30.00R VSB 3/8          
GATESVILLE     CLOUDY    70  70 100 NW10G16   30.04R FOG              
HAMILTON       LGT RAIN  68  68 100 NE9       30.06R                  
LAMPASAS       HVY RAIN  71  69  96 N7        30.02S                  
$$

TXZ095>097-106>112-122>126-135>138-148>153-164>167-251500-
EAST TEXAS
  
CITY           SKY/WX    TMP DP  RH WIND       PRES   REMARKS
PARIS          PTSUNNY   75  70  83 SE3       30.06R                  
SULPHUR SPRNGS CLOUDY    75  73  93 E6        30.06S                  
MOUNT PLEASANT CLOUDY    74  73  99 CALM      30.06S                  
GILMER         CLOUDY    74  71  91 SE3       30.05R                  
MINEOLA        MOSUNNY   73  72  94 CALM      30.04R                  
TYLER          CLOUDY    77  74  90 SE7       30.04R                  
LONGVIEW       MOSUNNY   74  73  97 SE7       30.03S                  
MARSHALL       CLOUDY    73  70  91 CALM      30.07R                  
ATHENS         CLOUDY    73  73 100 SE5       30.02R                  
PALESTINE      CLOUDY    76  76  99 CALM      30.03R                  
JACKSONVILLE   FOG       73  73 100 E3        30.06R VSB 1/2          
HENDERSON      CLOUDY    74  74  98 SE5       30.05S                  
CENTER         FOG       74  73  95 CALM      30.06R VSB<1/4          
NACOGDOCHES    CLOUDY    75  73  94 E6        30.02S                  
LUFKIN         CLOUDY    76  74  93 SE8       30.02S                  
$$

SUPPLEMENTAL OBSERVATIONS (CENTRAL)
  
CITY           SKY/WX    TMP DP  RH WIND       PRES   REMARKS
DENISON DAM      N/A     70  66  88 E3          N/A                   
CADDO GRASSLND   N/A     75  70  83 SE2         N/A                   
PAT MAYSE LAKE   N/A     73  70  88 NE1         N/A                   
GREENVILLE       N/A     75  72  88 E3          N/A                   
CEDAR HILL       N/A     75  73  94 S1          N/A                   
MCGREGOR         N/A     75  73  94 SE8         N/A                   
TEMPLE           N/A     75  72  88 SE9         N/A                   
$$

SUPPLEMENTAL OBSERVATIONS (WEST)
  
CITY           SKY/WX    TMP DP  RH WIND       PRES   REMARKS
MILLERS CREEK    N/A     68  66  94 NW7G16      N/A                   
POSSUM KINGDOM   N/A     70  68  94 NE6         N/A                   
LBJ GRASSLAND    N/A     70  68  94 N2          N/A                   
GRANBURY         N/A     72  68  88 E3          N/A                   
HAMBY            N/A     66  64  94 E3          N/A                   
IVIE RESERVOIR   N/A     66  63  88 E6          N/A                   
COLORADO BEND    N/A     66  61  82 E5          N/A                   
$$

SUPPLEMENTAL OBSERVATIONS (EAST)
  
CITY           SKY/WX    TMP DP  RH WIND       PRES   REMARKS
CLARKSVILLE      N/A     77  72  83 E2          N/A                   
CADDO LAKE       N/A     72  66  83 CALM        N/A                   
GILMER           N/A     75  72  88 SE5         N/A                   
HENDERSON        N/A     75  72  88 SE5         N/A                   
LUFKIN           N/A     79  73  83 MISG        N/A                   
N SABINE NF      N/A     72  70  94 MISG        N/A                   
S SABINE NF      N/A     79  75  89 CALM        N/A                   
$$

SUPPLEMENTAL OBSERVATIONS ARE A COLLECTION OF AUTOMATED INSTRUMENTS
THAT ARE MAINTAINED BY A VARIETY OF FEDERAL AND STATE AGENCIES. 
CERTAIN ELEMENTS...SUCH AS HUMIDITY VALUES AND SUSTAINED WIND 
SPEEDS...MAY BE APPROXIMATED.

  

Return to Home page


Western Regional Climate Center, wrcc@dri.edu